Date,TemperatureHighF,TemperatureAvgF,TemperatureLowF,DewpointHighF,DewpointAvgF,DewpointLowF,HumidityHigh,HumidityAvg,HumidityLow,PressureMaxIn,PressureMinIn,WindSpeedMaxMPH,WindSpeedAvgMPH,GustSpeedMaxMPH,PrecipitationSumIn
2013-1-1,49.8,40.2,34.5,38.2,33.6,30.1,87,78,60,30.03,29.51,0,0,4,0.00
2013-1-2,49.1,44.5,39.7,46.4,40.1,34.0,91,85,77,30.30,30.03,0,0,3,0.00
2013-1-3,54.9,48.1,44.2,49.3,44.8,41.8,92,88,80,30.59,30.30,0,0,2,0.00
2013-1-4,60.3,47.9,43.7,45.8,42.6,39.6,89,82,56,30.62,30.57,0,0,8,0.01
2013-1-5,59.9,47.4,42.3,49.2,42.3,38.4,88,83,62,30.58,30.47,0,0,1,0.00
2013-1-6,49.5,45.1,40.6,46.9,42.0,37.9,92,89,86,30.51,30.35,1,0,4,0.00
2013-1-7,50.2,46.3,43.3,44.7,42.4,40.3,89,86,79,30.35,30.19,1,0,7,0.00
2013-1-8,52.0,48.0,43.3,46.4,44.1,40.3,90,86,80,30.21,30.16,2,0,6,0.14
2013-1-9,52.9,39.1,33.1,43.8,34.9,29.6,92,85,66,30.21,30.09,2,0,8,0.01
2013-1-10,37.6,34.3,31.3,34.9,30.9,27.9,92,87,83,30.09,29.92,0,0,1,0.00
2013-1-11,53.8,37.0,32.0,44.5,33.3,28.9,93,87,64,30.06,29.95,5,0,8,0.01
2013-1-12,39.9,35.8,33.3,35.2,32.3,27.0,99,87,78,30.04,29.63,20,4,172,0.00
2013-1-13,50.2,33.0,28.6,34.7,29.1,26.0,93,85,74,30.17,30.04,15,0,15,0.00
2013-1-14,40.6,34.0,31.3,37.9,31.6,29.5,98,91,83,30.08,29.67,20,3,20,0.26
2013-1-15,42.3,33.1,26.2,32.9,28.5,24.3,97,83,68,29.87,29.67,25,2,25,0.01
2013-1-16,26.6,25.2,23.2,25.9,24.0,21.8,97,95,93,30.02,29.82,0,0,0,0.00
2013-1-17,34.0,30.3,25.9,30.1,27.5,25.2,100,89,75,30.03,29.83,17,1,17,0.00
2013-1-18,32.0,28.3,25.5,29.8,25.9,22.8,96,90,84,29.83,29.45,23,0,23,0.00
2013-1-19,31.8,30.4,28.4,28.4,27.7,26.5,95,90,83,29.56,29.43,0,0,0,0.00
2013-1-20,31.3,30.5,29.7,30.9,29.0,26.4,100,94,83,29.53,29.30,0,0,0,0.00
2013-1-21,30.7,29.3,27.3,30.3,29.0,26.3,100,98,96,29.44,29.24,0,0,0,0.01
2013-1-22,32.9,30.0,25.3,32.0,28.4,22.3,97,94,85,29.73,29.44,16,1,16,0.00
2013-1-23,32.5,31.1,29.7,31.6,29.5,28.0,98,94,86,29.85,29.73,14,0,14,0.00
2013-1-24,35.4,31.7,28.9,31.1,27.6,24.0,95,85,71,30.11,29.85,0,0,0,0.04
2013-1-25,34.9,31.6,27.0,33.8,27.4,22.2,97,84,76,30.07,29.45,0,0,0,0.21
2013-1-26,62.2,39.7,33.8,43.5,37.0,32.8,100,90,79,29.77,29.41,28,2,32,0.17
2013-1-27,50.7,44.3,37.0,48.7,37.7,31.1,93,78,55,29.56,29.18,26,8,51,0.11
2013-1-28,50.4,42.1,34.9,45.5,37.5,31.5,92,84,72,29.75,29.38,33,9,62,0.06
2013-1-29,56.3,51.6,46.2,52.2,47.1,41.4,91,85,72,29.60,29.44,15,6,35,0.04
2013-1-30,51.6,47.4,41.9,47.1,39.4,32.0,91,75,50,29.98,29.48,41,12,68,0.05
2013-1-31,49.1,45.3,41.7,41.4,37.9,33.6,92,76,58,29.98,29.71,34,10,46,0.15
2013-2-1,45.9,42.1,39.7,39.0,37.4,34.5,92,84,67,29.81,29.46,16,4,23,0.04
2013-2-2,41.2,36.5,30.7,36.3,28.3,23.5,87,73,53,30.24,29.68,27,11,34,0.00
2013-2-3,50.4,42.3,30.7,44.8,37.8,27.5,89,84,80,30.24,29.85,20,6,27,0.00
2013-2-4,49.8,45.4,34.9,45.7,36.8,31.5,92,73,57,29.91,29.64,30,16,42,0.11
2013-2-5,41.5,37.1,33.3,38.1,31.5,26.8,91,81,63,29.65,29.30,21,13,38,0.17
2013-2-6,41.4,38.3,34.3,37.2,30.7,25.5,91,75,61,30.11,29.40,26,17,38,0.02
2013-2-7,38.8,35.1,30.6,34.3,30.9,25.7,93,85,71,30.13,29.99,13,4,24,0.02
2013-2-8,42.8,36.6,32.4,36.5,32.9,30.0,93,87,74,30.18,30.06,16,4,24,0.00
2013-2-9,37.8,35.6,32.4,36.0,33.9,30.9,98,94,88,30.17,29.83,7,2,10,0.20
2013-2-10,39.7,35.7,31.8,37.9,34.2,30.6,98,97,93,29.83,29.27,19,9,30,0.50
2013-2-11,34.0,32.4,31.6,30.7,30.0,28.8,98,93,85,29.83,29.32,21,12,28,0.08
2013-2-12,33.8,32.7,31.8,30.4,26.6,23.9,95,79,70,30.13,29.83,11,5,16,0.01
2013-2-13,36.7,32.5,31.1,35.2,28.8,23.9,95,86,74,30.15,29.83,16,8,32,0.08
2013-2-14,48.6,42.9,36.7,42.3,39.2,34.9,97,87,71,29.97,29.68,14,6,31,0.28
2013-2-15,47.1,41.2,34.2,38.7,35.7,32.2,94,82,66,30.17,29.97,11,2,18,0.01
2013-2-16,48.2,39.2,31.6,39.6,35.1,30.2,100,90,65,30.21,30.14,6,2,13,0.00
2013-2-17,46.8,38.6,33.1,39.1,34.5,31.3,99,87,59,30.19,29.77,13,5,20,0.00
2013-2-18,44.1,37.9,32.2,36.6,34.2,31.3,99,87,70,30.15,30.10,14,5,22,0.00
2013-2-19,46.6,35.2,24.8,36.4,31.6,24.8,100,88,62,30.13,30.04,13,2,16,0.00
2013-2-20,36.1,33.5,29.7,35.1,29.6,23.6,100,86,73,30.26,30.12,24,13,32,0.00
2013-2-21,33.6,30.8,29.3,24.2,21.3,18.3,78,68,58,30.27,30.19,17,11,34,0.00
2013-2-22,33.1,31.2,29.7,26.7,23.4,19.3,79,73,65,30.20,30.15,13,7,26,0.00
2013-2-23,35.6,32.7,30.7,30.7,27.9,25.3,95,82,69,30.27,30.14,8,4,20,0.00
2013-2-24,36.0,33.5,31.5,30.4,28.2,25.7,93,81,66,30.36,30.26,12,4,24,0.00
2013-2-25,38.3,36.4,32.2,36.8,34.2,28.3,98,92,81,30.47,30.34,18,8,32,0.00
2013-2-26,38.7,36.8,35.6,37.4,35.9,34.2,100,96,91,30.64,30.46,15,10,30,0.00
2013-2-27,43.7,37.6,33.8,36.0,34.1,32.4,96,87,68,30.64,30.55,12,7,24,0.00
2013-2-28,47.1,38.2,32.2,37.3,31.0,21.7,99,78,38,30.56,30.42,11,6,24,0.00
2013-3-1,43.7,40.7,37.4,38.8,35.1,30.6,99,81,65,30.46,30.41,12,6,26,0.00
2013-3-2,46.6,39.1,31.6,34.0,31.3,28.6,95,74,59,30.45,30.27,6,2,14,0.00
2013-3-3,47.1,38.4,28.2,36.3,32.7,27.2,98,81,64,30.29,30.12,9,2,21,0.00
2013-3-4,46.8,39.2,34.3,34.9,33.3,31.3,97,80,60,30.11,29.75,10,4,18,0.00
2013-3-5,55.8,40.6,28.9,44.0,36.4,28.4,100,86,60,29.75,29.60,6,1,10,0.00
2013-3-6,44.4,39.9,35.1,42.0,38.8,35.1,100,96,90,29.62,29.56,9,6,16,0.00
2013-3-7,45.5,42.5,39.7,45.5,42.3,39.6,100,99,95,29.56,29.39,8,5,16,0.32
2013-3-8,43.3,41.6,39.0,43.3,41.6,39.0,100,100,99,29.59,29.41,8,5,16,0.05
2013-3-9,40.5,38.5,34.9,39.0,37.4,33.3,100,96,90,29.73,29.58,8,6,16,0.07
2013-3-10,35.1,33.0,30.0,33.8,30.0,22.4,99,89,65,29.84,29.72,22,12,33,0.02
2013-3-11,32.9,28.5,26.1,26.6,21.4,16.1,94,75,51,29.91,29.83,23,16,45,0.00
2013-3-12,38.1,32.6,26.4,28.6,24.2,17.8,91,71,58,29.93,29.86,14,8,28,0.00
2013-3-13,42.6,36.2,30.2,30.1,26.6,19.3,89,70,40,30.00,29.83,9,4,18,0.00
2013-3-14,45.1,35.9,25.7,34.5,27.1,19.9,94,73,43,30.03,29.84,6,1,13,0.02
2013-3-15,45.3,42.0,36.3,41.8,39.0,33.3,96,89,79,29.84,29.42,7,4,21,0.03
2013-3-16,45.1,35.4,32.0,41.5,39.9,34.5,98,41,79,29.42,29.21,15,2,27,0.24
2013-3-17,40.8,35.5,31.8,37.1,33.9,31.0,99,94,80,29.27,29.17,6,2,24,0.02
2013-3-18,44.6,35.4,27.0,38.5,33.1,26.7,100,92,71,29.39,29.20,12,4,24,0.00
2013-3-19,42.8,37.4,33.6,36.5,34.3,32.6,98,89,75,29.56,29.39,12,4,30,0.00
2013-3-20,38.3,36.1,34.2,34.8,32.8,30.3,98,88,77,30.01,29.56,15,7,33,0.00
2013-3-21,40.8,35.9,30.9,32.0,30.5,26.8,97,81,62,30.03,29.90,18,10,38,0.02
2013-3-22,37.8,33.8,32.2,32.5,31.8,30.6,99,93,77,29.90,29.77,26,15,48,0.20
2013-3-23,32.2,31.2,29.7,31.9,30.7,28.4,99,98,95,29.96,29.81,16,11,21,0.05
2013-3-24,32.2,29.8,27.7,28.7,26.0,22.5,97,86,69,30.04,29.95,22,12,27,0.00
2013-3-25,35.2,32.1,30.6,25.6,24.4,22.6,80,73,64,30.06,30.01,24,15,29,0.00
2013-3-26,36.0,32.5,30.6,25.6,23.3,20.7,80,69,55,30.03,29.96,20,12,27,0.00
2013-3-27,36.0,32.5,30.9,28.2,25.0,19.6,85,74,57,29.97,29.92,14,8,20,0.00
2013-3-28,38.3,33.2,27.5,29.0,24.1,20.6,87,70,50,30.00,29.93,16,7,20,0.00
2013-3-29,38.3,33.9,29.1,27.5,23.6,21.0,80,66,54,29.96,29.84,14,6,20,0.00
2013-3-30,40.1,33.1,27.0,30.5,26.4,21.1,96,78,54,30.00,29.85,14,5,20,0.00
2013-3-31,39.2,33.4,24.6,28.4,24.0,20.9,91,70,51,30.01,29.92,14,5,18,0.00
2013-4-1,38.1,34.5,30.9,28.5,25.9,22.2,85,71,56,29.96,29.89,16,10,21,0.00
2013-4-2,44.6,35.7,26.6,31.2,21.6,11.4,89,60,28,30.15,29.97,16,8,22,0.00
2013-4-3,44.1,36.1,28.8,32.1,24.0,14.9,95,66,33,30.15,30.09,26,12,36,0.00
2013-4-4,41.4,36.2,32.4,30.4,25.4,18.3,91,67,40,30.10,30.02,26,14,32,0.00
2013-4-5,44.2,37.3,30.7,32.1,27.2,21.8,94,69,41,30.20,30.03,20,10,28,0.00
2013-4-6,49.8,38.9,28.8,30.0,26.8,22.9,88,64,36,30.30,30.20,10,2,14,0.00
2013-4-7,49.5,40.5,28.8,30.4,25.2,21.8,82,57,35,30.27,29.89,10,2,15,0.00
2013-4-8,47.8,39.3,33.3,32.7,28.9,25.2,89,67,43,29.89,29.59,18,10,25,0.00
2013-4-9,50.0,41.2,34.5,35.4,33.0,28.8,90,74,44,29.62,29.45,14,11,22,0.00
2013-4-10,52.2,43.3,36.0,38.5,34.3,31.8,85,72,50,29.71,29.49,8,4,13,0.00
2013-4-11,45.5,42.5,39.6,43.1,39.9,37.5,97,90,74,29.50,29.39,10,5,14,0.02
2013-4-12,53.8,46.3,41.9,46.2,42.4,38.2,98,87,64,29.72,29.30,8,3,13,0.04
2013-4-13,52.3,46.7,39.0,51.3,43.9,36.3,98,90,68,29.84,29.71,14,5,20,0.06
2013-4-14,63.9,55.5,50.5,52.0,49.6,46.7,97,82,56,29.86,29.75,10,6,22,0.04
2013-4-15,62.8,54.0,48.2,48.5,45.9,42.2,90,75,51,29.98,29.84,10,4,17,0.00
2013-4-16,61.2,53.5,46.0,48.1,41.6,34.0,95,67,39,30.04,29.78,10,4,17,0.02
2013-4-17,61.5,52.4,42.4,50.9,45.0,37.8,96,77,57,30.04,29.63,10,6,22,0.00
2013-4-18,55.8,50.3,46.9,44.5,37.4,28.1,83,62,36,30.00,29.62,12,5,17,0.00
2013-4-19,54.7,47.2,41.9,41.8,37.3,28.7,91,70,38,30.51,30.00,10,5,15,0.06
2013-4-20,59.9,48.1,34.2,40.8,31.9,24.3,96,59,27,30.54,30.33,8,2,10,0.00
2013-4-21,53.6,45.9,36.9,41.5,35.9,28.0,94,69,51,30.33,30.00,6,2,10,0.00
2013-4-22,56.7,48.9,38.3,48.4,43.1,37.8,99,82,56,30.00,29.87,6,1,13,0.00
2013-4-23,66.6,55.1,45.3,47.9,45.0,41.7,94,71,46,30.22,29.93,10,3,15,0.00
2013-4-24,61.2,54.1,45.5,53.6,48.9,43.0,94,83,72,30.26,30.16,6,1,10,0.00
2013-4-25,63.9,53.3,44.4,54.2,48.4,42.0,96,84,63,30.25,30.07,8,3,15,0.06
2013-4-26,52.7,45.3,39.7,42.1,35.0,18.8,91,70,27,30.11,29.92,12,5,22,0.00
2013-4-27,49.5,42.1,34.2,39.4,34.9,31.4,95,77,54,30.13,29.92,18,6,22,0.03
2013-4-28,56.3,45.4,34.3,44.2,37.2,31.7,96,75,46,30.13,29.82,6,2,11,0.17
2013-4-29,53.6,46.2,39.4,44.1,37.7,33.3,96,74,49,30.19,29.85,10,4,17,0.05
2013-4-30,54.0,45.7,36.9,39.9,35.1,30.0,96,69,42,30.33,30.19,10,4,13,0.00
2013-5-1,59.7,48.4,33.8,39.9,33.3,27.3,93,59,33,30.33,30.20,8,2,14,0.00
2013-5-2,63.3,51.4,38.8,39.4,35.1,25.6,90,57,33,30.27,30.17,6,2,10,0.00
2013-5-3,61.0,52.1,40.5,44.4,38.3,25.4,77,60,42,30.18,29.99,8,2,13,0.00
2013-5-4,60.8,52.4,45.3,51.6,42.9,36.8,94,72,43,30.11,29.91,8,3,24,0.15
2013-5-5,66.4,54.5,41.5,50.3,44.9,39.0,94,72,46,30.17,30.11,4,1,14,0.00
2013-5-6,72.0,58.0,42.1,45.6,41.4,32.9,95,58,33,30.17,30.04,4,1,12,0.00
2013-5-7,71.4,60.2,46.2,48.1,42.1,36.7,85,54,32,30.07,29.84,10,4,24,0.00
2013-5-8,65.1,55.8,45.3,54.0,47.5,38.3,95,75,51,29.84,29.62,10,3,20,0.13
2013-5-9,55.9,48.6,42.6,47.2,42.0,36.4,90,79,50,29.76,29.48,12,5,32,0.09
2013-5-10,61.3,52.0,46.9,49.8,44.4,41.3,94,76,56,29.85,29.55,8,3,22,0.01
2013-5-11,55.4,46.4,41.2,49.8,41.5,37.4,95,83,66,29.88,29.74,12,3,30,0.24
2013-5-12,53.2,47.9,41.7,50.5,42.2,37.7,95,81,61,29.98,29.83,18,3,24,0.03
2013-5-13,54.3,49.0,41.2,49.0,39.1,33.8,90,69,46,29.86,29.75,35,8,49,0.10
2013-5-14,52.0,44.6,37.4,43.9,40.0,35.6,98,85,58,29.76,29.18,28,6,49,0.65
2013-5-15,54.1,45.7,40.6,44.5,40.4,34.6,98,83,49,29.54,29.06,32,9,49,0.17
2013-5-16,59.2,49.7,36.1,43.4,36.7,30.5,97,64,34,29.58,29.49,18,4,32,0.00
2013-5-17,54.5,49.6,45.5,44.5,42.6,39.7,93,78,61,29.84,29.58,24,8,35,0.00
2013-5-18,56.3,50.8,46.0,47.1,44.7,42.7,93,80,66,29.84,29.72,24,5,35,0.01
2013-5-19,65.7,55.0,43.0,49.3,46.2,42.2,98,74,50,29.95,29.80,18,5,28,0.00
2013-5-20,61.7,55.4,49.5,56.1,52.1,45.9,96,89,80,29.98,29.89,18,8,28,0.05
2013-5-21,55.8,52.1,48.7,53.0,49.3,44.6,98,90,82,30.12,29.98,32,8,32,0.01
2013-5-22,53.6,49.1,44.1,46.0,41.0,34.3,93,75,51,30.12,30.05,35,10,49,0.00
2013-5-23,50.7,44.1,40.5,40.4,36.4,32.6,87,75,50,30.05,29.90,35,11,49,0.05
2013-5-24,48.7,44.4,40.1,42.5,38.8,36.8,90,81,68,30.13,29.73,49,17,66,0.06
2013-5-25,61.2,50.4,37.2,41.9,37.0,31.4,97,64,34,30.21,30.13,21,5,35,0.00
2013-5-26,67.6,54.7,40.5,40.9,37.1,32.0,86,55,29,30.17,29.93,10,2,21,0.00
2013-5-27,62.6,51.9,39.9,44.4,39.9,34.8,85,65,42,29.93,29.60,28,6,42,0.00
2013-5-28,52.5,49.0,46.4,51.4,47.3,43.5,98,94,82,29.62,29.47,28,7,35,0.76
2013-5-29,56.3,51.1,46.2,53.8,50.1,46.0,99,97,85,29.82,29.57,24,8,46,0.28
2013-5-30,59.5,54.1,50.9,53.8,51.7,50.1,99,92,78,30.06,29.79,24,9,38,0.32
2013-5-31,69.4,59.1,51.1,54.3,50.4,41.9,94,75,47,30.18,30.05,24,7,46,0.00
2013-6-1,60.3,53.3,45.1,44.3,42.0,40.5,87,67,50,30.35,30.18,32,10,42,0.00
2013-6-2,62.2,54.5,45.7,45.2,41.7,37.4,94,65,42,30.46,30.34,21,6,32,0.00
2013-6-3,65.8,56.3,43.7,48.1,43.9,41.6,94,66,42,30.51,30.44,18,5,32,0.00
2013-6-4,65.5,56.2,44.1,48.9,43.2,39.5,87,63,43,30.47,30.28,28,12,49,0.00
2013-6-5,57.2,53.5,49.3,48.9,47.8,45.4,88,81,71,30.27,30.16,24,10,32,0.00
2013-6-6,66.2,53.8,46.4,49.7,46.1,43.5,96,77,51,30.26,30.18,24,10,35,0.00
2013-6-7,68.5,56.4,45.0,51.7,44.6,37.5,96,68,36,30.29,30.24,32,12,42,0.00
2013-6-8,60.8,55.0,46.9,47.6,46.2,44.6,94,73,60,30.29,30.14,28,13,42,0.00
2013-6-9,63.5,58.8,48.4,47.8,46.4,43.2,83,64,50,30.14,29.98,24,13,35,0.00
2013-6-10,57.6,52.0,48.0,45.5,43.9,42.7,84,74,61,30.03,29.94,14,4,24,0.00
2013-6-11,65.3,55.9,47.5,58.2,50.9,43.9,91,84,73,29.94,29.82,21,8,28,0.01
2013-6-12,66.6,59.4,54.3,58.8,55.1,51.4,97,87,60,29.83,29.70,18,6,32,0.15
2013-6-13,64.8,56.7,50.0,57.9,51.5,46.6,96,83,63,29.98,29.66,38,5,46,0.49
2013-6-14,64.0,55.2,45.1,57.2,48.9,43.2,97,80,56,30.00,29.71,28,7,42,0.11
2013-6-15,60.3,54.3,48.0,52.7,47.9,43.4,97,80,60,29.79,29.63,21,4,35,0.24
2013-6-16,64.6,57.6,49.8,51.7,49.0,46.1,90,74,55,29.98,29.79,10,2,24,0.00
2013-6-17,64.0,57.6,52.9,52.1,49.2,44.9,89,74,53,30.02,29.95,24,8,38,0.01
2013-6-18,71.1,60.6,50.2,61.2,54.2,46.6,94,80,65,30.02,29.93,14,5,35,0.00
2013-6-19,74.1,65.6,59.5,59.3,54.9,51.2,93,70,49,30.03,29.95,24,6,46,0.00
2013-6-20,68.0,60.9,53.4,63.6,56.6,47.6,98,86,72,30.02,29.78,18,4,32,0.24
2013-6-21,71.6,62.2,55.2,59.7,57.1,48.0,100,85,57,29.83,29.76,10,2,24,0.01
2013-6-22,63.1,56.8,52.0,55.6,51.7,47.8,97,83,65,29.78,29.56,24,4,35,0.13
2013-6-23,59.9,55.3,51.1,55.8,50.6,44.3,95,84,73,30.02,29.58,46,8,49,0.10
2013-6-24,61.3,54.2,49.6,45.9,43.8,42.0,79,69,52,30.31,30.02,21,8,38,0.00
2013-6-25,67.6,58.1,45.3,49.0,45.7,42.0,95,66,41,30.43,30.32,14,2,21,0.00
2013-6-26,67.6,59.4,52.5,53.1,49.1,45.1,86,70,51,30.45,30.41,21,5,35,0.00
2013-6-27,62.4,54.6,49.5,53.9,49.2,45.1,99,83,53,30.42,30.18,18,5,28,0.31
2013-6-28,65.7,59.9,54.3,61.4,57.7,54.0,100,93,79,30.17,30.03,38,7,38,0.12
2013-6-29,68.4,59.5,51.4,55.7,49.6,45.9,90,71,45,30.25,30.11,24,6,38,0.00
2013-6-30,74.8,64.2,56.3,59.8,55.6,52.1,97,75,51,30.24,30.02,14,3,28,0.00
2013-7-1,65.8,58.2,52.0,52.9,47.5,42.3,88,69,45,30.03,29.99,21,3,32,0.00
2013-7-2,61.7,55.8,48.9,55.0,50.5,46.1,94,83,68,29.99,29.59,24,5,35,0.02
2013-7-3,64.0,59.5,54.3,57.1,54.5,50.7,99,84,67,29.98,29.57,18,3,32,0.10
2013-7-4,75.9,64.3,52.5,60.6,55.1,50.4,96,74,52,30.27,29.97,18,4,38,0.00
2013-7-5,75.0,65.8,51.8,55.2,52.6,48.7,91,65,47,30.42,30.27,7,1,18,0.00
2013-7-6,74.5,74.5,74.5,54.1,54.1,54.1,49,49,49,30.40,30.40,0,0,14,0.00
2013-7-7,74.5,74.5,74.5,54.1,54.1,54.1,49,49,49,30.40,30.40,0,0,14,0.00
2013-7-8,67.6,63.3,58.8,58.6,57.5,55.9,90,82,71,30.51,30.50,21,10,35,0.00
2013-7-9,78.3,66.9,51.4,55.8,45.3,23.8,98,54,14,30.51,30.30,21,6,38,0.00
2013-7-10,66.9,63.5,55.4,58.6,55.0,45.7,88,74,51,30.35,30.31,28,10,42,0.00
2013-7-11,70.3,59.8,51.3,53.9,48.3,44.6,88,67,43,30.34,30.26,24,10,38,0.00
2013-7-12,80.6,65.5,50.7,61.4,55.1,49.3,96,72,43,30.31,30.23,14,4,32,0.00
2013-7-13,85.1,73.4,59.0,60.3,57.7,52.5,80,60,40,30.28,30.23,35,6,38,0.00
2013-7-14,80.1,69.2,59.5,60.0,55.0,44.4,93,64,30,30.29,30.20,24,7,42,0.00
2013-7-15,83.8,67.6,63.9,62.9,56.1,54.0,80,68,36,30.24,30.18,21,2,38,0.01
2013-7-16,85.1,70.4,56.1,57.4,54.9,52.6,88,61,34,30.25,30.18,18,4,28,0.00
2013-7-17,82.6,70.8,57.9,60.8,56.7,52.9,87,64,36,30.32,30.24,21,6,35,0.00
2013-7-18,81.0,71.2,60.6,59.5,56.4,53.4,89,62,39,30.35,30.30,35,9,46,0.00
2013-7-19,81.5,71.5,59.4,59.7,55.4,53.7,86,59,40,30.34,30.25,38,12,63,0.00
2013-7-20,70.2,65.3,60.8,60.9,58.9,56.8,94,80,67,30.30,30.22,46,14,56,0.00
2013-7-21,68.4,62.0,57.6,60.7,58.1,55.4,96,87,71,30.23,30.08,28,11,38,0.00
2013-7-22,84.6,69.8,58.5,65.9,61.3,57.8,99,77,50,30.10,29.92,28,9,42,0.00
2013-7-23,81.0,70.9,65.1,69.5,64.4,58.2,99,81,54,29.96,29.87,32,5,42,0.91
2013-7-24,81.0,70.5,62.1,60.7,57.4,52.5,94,65,38,29.95,29.88,24,4,38,0.00
2013-7-25,80.4,67.9,59.4,63.5,58.1,52.8,97,74,43,29.91,29.84,18,4,52,0.02
2013-7-26,77.7,68.1,57.7,58.1,53.1,47.4,90,61,35,29.91,29.85,14,2,38,0.00
2013-7-27,77.9,64.9,54.0,60.9,55.3,50.5,98,75,40,29.86,29.57,21,3,38,0.89
2013-7-28,75.4,65.6,57.0,60.8,57.6,52.7,99,78,50,29.71,29.56,32,8,56,0.40
2013-7-29,73.8,63.3,58.8,62.2,57.9,53.1,94,83,58,29.92,29.70,18,5,35,0.43
2013-7-30,73.4,64.8,56.3,58.8,56.0,51.1,96,75,53,29.92,29.83,14,3,28,0.00
2013-7-31,69.3,62.2,57.0,68.1,59.8,54.8,99,92,78,29.96,29.88,18,3,32,0.17
2013-8-1,88.0,71.5,60.4,67.9,62.8,59.6,98,78,40,29.89,29.65,32,9,74,0.00
2013-8-2,76.8,68.1,59.4,63.7,60.0,54.8,94,77,52,29.77,29.69,21,5,46,0.08
2013-8-3,75.4,64.7,55.8,58.4,55.0,50.5,96,73,44,30.04,29.76,14,2,28,0.01
2013-8-4,65.7,61.3,55.6,61.4,57.9,54.2,96,89,75,30.05,29.97,24,7,35,0.20
2013-8-5,72.3,61.3,54.3,62.8,58.6,51.4,98,91,68,29.97,29.77,28,9,38,0.24
2013-8-6,66.7,59.5,49.5,54.6,49.3,46.7,98,71,50,30.03,29.93,10,3,21,0.00
2013-8-7,69.6,61.6,53.6,56.5,50.3,44.5,94,69,41,30.06,29.95,35,6,42,0.01
2013-8-8,76.3,64.0,49.6,55.6,52.1,48.5,96,68,42,30.11,30.03,14,2,28,0.00
2013-8-9,67.6,62.0,58.3,60.4,53.8,48.3,98,75,60,30.19,29.98,21,6,38,0.16
2013-8-10,68.9,61.2,56.5,55.9,49.0,43.0,93,66,45,30.20,30.11,14,3,24,0.01
2013-8-11,69.4,60.9,54.5,56.3,51.7,44.9,98,74,44,30.10,30.00,18,4,32,0.01
2013-8-12,65.3,59.2,54.1,52.5,49.5,45.9,88,71,53,30.11,29.99,28,6,42,0.00
2013-8-13,62.4,58.4,48.9,54.8,51.6,46.0,91,79,67,30.18,30.10,10,1,21,0.00
2013-8-14,67.5,63.2,62.4,62.1,56.7,54.8,94,79,76,30.18,30.09,7,0,18,0.14
2013-8-15,76.1,67.3,61.2,65.9,61.2,57.3,97,82,61,30.09,29.95,14,2,35,0.02
2013-8-16,73.8,64.7,57.4,63.9,58.4,51.8,99,82,50,30.00,29.89,14,4,35,0.45
2013-8-17,67.5,60.1,53.1,60.9,56.2,51.0,96,87,71,29.99,29.65,21,4,42,0.00
2013-8-18,73.2,63.7,56.1,57.0,51.7,46.2,91,67,42,29.91,29.66,32,4,38,0.00
2013-8-19,66.9,59.9,52.7,52.6,49.4,46.4,90,70,51,30.30,29.91,14,3,24,0.00
2013-8-20,73.8,62.9,51.6,56.5,52.7,48.4,91,71,47,30.35,30.28,7,1,18,0.00
2013-8-21,75.0,63.6,53.4,60.4,55.8,50.4,91,77,56,30.29,30.14,10,1,21,0.00
2013-8-22,75.7,66.8,60.3,63.4,61.0,58.5,97,83,58,30.14,30.02,24,4,38,0.00
2013-8-23,74.5,66.9,58.8,62.9,59.9,56.7,97,80,58,30.05,29.88,21,6,38,0.11
2013-8-24,65.1,61.0,55.8,61.0,56.0,48.3,98,84,63,29.93,29.86,28,8,49,0.02
2013-8-25,71.4,61.9,53.8,62.2,56.6,48.5,91,83,69,30.11,29.90,42,10,46,0.00
2013-8-26,75.6,64.7,58.1,59.6,56.1,50.6,95,76,46,30.16,30.08,24,10,38,0.00
2013-8-27,72.1,61.2,52.2,59.3,54.8,49.6,100,82,46,30.17,30.09,18,4,32,0.00
2013-8-28,71.4,61.8,54.5,59.5,56.7,53.9,99,84,64,30.24,30.17,10,2,21,0.00
2013-8-29,72.9,62.7,52.0,59.7,55.7,50.0,94,79,57,30.19,30.12,10,1,24,0.00
2013-8-30,74.7,67.3,56.7,61.6,58.8,55.7,99,76,60,30.13,30.05,7,4,35,0.00
2013-8-31,74.1,74.1,74.1,59.3,59.3,59.3,60,60,60,30.05,30.05,7,7,18,0.00
2013-9-1,74.1,67.9,56.1,59.3,54.0,46.1,82,62,42,30.42,30.05,21,7,32,0.02
2013-9-2,73.8,63.7,50.7,59.7,55.3,48.9,95,75,58,30.33,30.29,18,4,35,0.00
2013-9-3,70.9,70.9,70.9,59.4,59.4,59.4,67,67,67,30.31,30.31,4,4,21,0.00
2013-9-4,70.9,70.9,70.9,59.4,59.4,59.4,67,67,67,30.31,30.31,4,4,21,0.00
2013-9-5,70.9,70.9,70.9,59.4,59.4,59.4,67,67,67,30.31,30.31,4,4,21,0.00
2013-9-6,70.9,69.9,53.1,59.4,59.0,52.2,98,69,67,30.31,29.75,10,4,21,0.44
2013-10-18,58.7,54.4,50.0,55.9,53.3,49.7,100,96,89,30.00,29.74,38,14,38,0.09
2013-10-19,64.4,56.1,51.6,59.9,54.9,51.6,100,96,78,29.74,29.57,32,13,32,0.42
2013-10-20,61.7,54.9,51.7,56.8,53.4,50.3,100,95,78,29.67,29.55,32,16,32,0.20
2013-10-21,61.3,56.7,51.7,59.7,56.1,51.4,100,98,93,29.68,29.52,42,19,42,0.39
2013-10-22,61.1,58.8,55.8,59.8,57.8,54.7,99,96,93,29.51,29.25,38,22,38,0.21
2013-10-23,57.8,53.1,43.6,55.4,48.8,40.9,99,86,58,29.82,29.15,42,15,42,0.19
2013-10-24,59.7,51.3,42.8,53.7,48.6,41.3,99,91,78,29.96,29.81,28,9,28,0.00
2013-10-25,64.0,56.9,52.9,59.5,54.6,51.8,100,93,74,29.81,29.52,32,12,38,0.09
2013-10-26,61.2,56.7,50.0,56.5,53.5,49.2,98,89,75,29.61,29.39,18,4,32,0.16
2013-10-27,57.0,52.3,48.6,53.0,49.5,47.5,98,91,78,29.40,29.18,18,3,32,0.09
2013-10-28,52.7,48.5,44.1,49.8,46.5,42.2,100,93,79,29.52,28.87,24,4,35,0.67
2013-10-29,52.7,46.6,40.8,45.6,42.1,39.1,96,85,64,30.03,29.52,24,4,35,0.01
2013-10-30,55.8,48.1,38.1,52.0,44.6,37.3,98,88,72,30.12,29.96,14,3,35,0.02
2013-10-31,53.2,50.0,46.2,51.7,49.3,46.2,100,98,93,29.99,29.87,7,1,14,0.03
2013-11-1,54.5,50.2,46.8,53.2,49.7,46.8,100,98,94,29.87,29.59,14,2,18,0.28
2013-11-2,54.0,48.4,44.6,51.3,45.7,39.9,100,91,74,29.60,29.18,28,6,56,0.00
2013-11-3,50.7,45.2,41.0,43.7,40.3,37.0,97,83,66,29.50,29.18,21,4,38,0.10
2013-11-4,48.2,41.8,36.9,42.4,39.2,35.0,99,91,74,29.47,29.14,24,5,32,0.02
2013-11-5,52.2,44.9,36.9,48.9,41.8,35.8,100,89,72,29.46,29.19,32,5,63,0.09
2013-11-6,55.8,48.8,45.3,55.8,47.7,42.2,100,96,87,29.53,29.34,18,2,32,0.42
2013-11-7,50.4,45.1,40.8,47.2,43.4,40.6,100,94,79,29.73,29.54,7,1,18,0.00
2013-11-8,46.0,42.1,37.4,45.3,41.8,37.4,100,99,95,29.72,29.59,7,1,14,0.26
2013-11-9,45.3,39.6,34.5,43.3,39.1,34.5,100,98,89,29.71,29.59,4,0,10,0.02
2013-11-10,48.6,41.1,35.6,40.3,38.0,35.1,99,89,67,30.22,29.63,18,4,32,0.02
2013-11-11,55.8,50.0,40.1,55.8,49.4,37.1,100,98,85,30.19,30.07,21,4,28,0.31
2013-11-12,52.2,46.6,39.0,49.8,44.3,37.4,100,92,74,30.52,30.17,24,3,28,0.06
2013-11-13,49.8,41.6,33.4,44.1,39.6,33.2,100,93,76,30.54,30.12,7,1,21,0.02
2013-11-14,46.2,43.9,39.0,45.2,39.8,34.6,99,86,75,30.48,30.10,28,10,46,0.02
2013-11-15,47.3,41.3,32.5,44.7,38.7,31.6,97,90,84,30.56,30.48,7,1,10,0.00
2013-11-16,50.5,46.7,42.6,47.3,44.2,41.3,97,91,83,30.50,30.38,18,2,21,0.00
2013-11-17,50.4,46.6,42.1,48.9,45.8,40.9,100,97,93,30.38,30.03,7,1,10,0.00
2013-11-18,46.9,44.5,38.8,46.7,43.7,37.3,99,97,90,30.02,29.78,18,3,24,0.05
2013-11-19,40.5,35.5,29.5,36.9,32.3,27.7,97,88,69,30.09,29.83,21,5,28,0.01
2013-11-20,43.7,38.9,32.2,42.2,36.6,30.6,98,92,77,30.01,29.44,35,8,66,0.28
2013-11-21,46.4,41.2,36.9,41.3,38.7,35.6,98,91,77,30.01,29.49,35,11,52,0.06
2013-11-22,44.1,39.2,35.2,39.7,37.2,34.5,98,93,80,30.24,30.01,21,5,35,0.01
2013-11-23,42.3,35.8,29.8,38.2,33.6,29.5,99,92,84,30.38,30.23,7,1,18,0.00
2013-11-24,44.6,40.6,35.2,41.7,37.7,32.9,94,89,83,30.62,30.37,18,3,24,0.00
2013-11-25,42.8,38.3,32.4,37.3,35.1,30.7,96,88,78,30.75,30.62,14,3,18,0.00
2013-11-26,45.0,38.4,28.9,42.5,35.8,28.4,99,91,78,30.75,30.58,10,2,14,0.01
2013-11-27,52.2,48.6,45.0,48.1,46.2,42.2,97,91,85,30.58,30.51,21,7,28,0.00
2013-11-28,48.2,45.3,40.6,46.7,44.2,40.6,100,96,88,30.60,30.51,4,0,10,0.00
2013-11-29,49.1,45.8,42.4,44.9,41.9,38.7,95,86,75,30.51,30.20,42,10,49,0.01
2013-11-30,44.6,40.6,37.0,40.3,35.8,33.5,94,83,73,30.46,30.23,21,5,28,0.00
2013-12-1,49.5,44.5,39.9,45.1,41.8,38.9,98,90,80,30.60,30.43,14,3,28,0.00
2013-12-2,46.8,43.6,41.7,42.2,40.0,37.4,98,87,75,30.60,30.47,4,0,7,0.00
2013-12-3,45.5,42.6,39.9,40.1,38.2,36.2,96,84,78,30.47,30.28,10,1,10,0.00
2013-12-4,45.5,42.1,35.1,44.4,38.2,32.9,96,86,72,30.47,30.25,18,4,32,0.00
2013-12-5,51.3,41.3,34.0,45.5,36.3,32.7,96,83,68,30.43,29.91,42,12,105,0.02
2013-12-6,45.1,40.3,35.4,41.2,36.8,31.8,99,88,75,30.37,30.26,24,5,38,0.02
2013-12-7,47.8,43.5,40.5,42.9,41.2,39.1,98,92,80,30.32,30.22,10,1,21,0.00
2013-12-8,50.0,45.9,40.8,45.6,43.3,40.2,99,91,82,30.25,30.17,24,3,28,0.01
2013-12-9,48.9,44.8,39.0,47.3,43.2,38.5,99,94,90,30.37,30.24,10,1,14,0.00
2013-12-10,48.0,42.1,37.8,43.9,40.0,37.4,100,93,79,30.42,30.35,14,3,21,0.01
2013-12-11,40.8,38.0,34.9,40.0,37.4,34.6,100,98,95,30.41,30.26,10,3,21,0.01
2013-12-12,49.8,43.6,35.1,48.5,43.0,34.3,100,98,94,30.26,30.12,14,4,24,0.13
2013-12-13,53.6,49.0,42.1,51.4,47.7,39.4,100,95,90,30.12,29.94,18,4,28,0.07
2013-12-14,51.6,45.4,36.9,49.3,42.6,35.5,96,90,80,30.20,29.88,24,6,49,0.01
2013-12-15,55.4,50.2,41.9,54.0,48.6,41.1,99,94,85,30.08,29.84,28,6,46,0.07
2013-12-16,55.0,49.8,43.2,53.7,47.3,36.0,98,91,73,30.14,29.78,18,4,38,0.10
2013-12-17,45.3,40.1,35.4,40.7,37.7,34.1,98,91,76,30.25,29.97,10,2,18,0.00
2013-12-18,49.6,44.2,37.4,48.1,43.4,37.1,100,97,93,29.97,29.16,52,12,77,0.36
2013-12-19,44.1,38.4,33.3,42.1,36.3,33.0,100,92,79,29.78,29.23,14,2,28,0.07
2013-12-20,49.1,41.6,33.4,47.7,39.3,32.4,99,92,85,30.07,29.78,21,4,46,0.07
2013-12-21,53.1,48.8,43.3,49.7,46.3,38.7,98,91,79,29.87,29.53,24,7,42,0.10
2013-12-22,45.5,40.4,36.1,41.5,37.6,33.4,99,90,74,29.82,29.63,32,3,46,0.12
2013-12-23,52.2,45.7,36.5,51.6,44.5,35.3,98,96,91,29.82,28.61,49,14,63,0.69
2013-12-24,51.8,42.2,38.5,51.3,38.7,34.5,99,87,77,28.87,28.61,18,5,49,0.17
2013-12-25,43.2,37.2,34.3,38.3,35.2,33.6,99,92,80,29.19,28.86,10,2,21,0.00
2013-12-26,43.5,37.8,33.3,40.5,36.9,33.3,100,97,88,29.43,29.02,38,4,66,0.02
2013-12-27,48.9,43.9,38.7,48.1,40.0,36.3,99,86,71,29.17,28.82,42,7,74,0.13
2013-12-28,43.5,37.5,33.8,39.0,35.6,33.0,98,93,82,29.70,29.17,7,1,18,0.01
2013-12-29,45.0,38.3,32.2,43.3,36.1,31.9,100,92,83,30.00,29.70,32,4,42,0.01
2013-12-30,49.8,45.5,38.7,48.7,43.5,37.5,98,93,83,29.84,29.46,38,11,63,0.27
2013-12-31,46.9,42.9,39.6,45.7,41.2,37.4,97,94,89,29.77,29.44,32,10,42,0.05
2014-1-1,50.4,44.9,39.2,49.8,44.0,38.4,99,97,94,29.48,28.91,63,12,63,0.54
2014-1-2,47.7,44.3,39.7,47.1,42.6,39.0,98,94,87,29.37,28.96,32,6,56,0.13